Location: Allison Elementary School
(34.0784°N, 117.7317°W)
Time: 07:01:43
(UTC+00:00)

Cosmos 1656 - Pass Details

Date: 15 November 2019
Orbit: 800 x 847 km, 71.1° (Epoch: 06 December)

Event Time Altitude Azimuth Distance (km) Brightness Sun altitude
Rises 01:02:12 0° 185° (S) 3,364 7.2 -3.6°
Reaches altitude 10° 01:04:42 10° 180° (S) 2,427 6.4 -4.1°
Maximum altitude 01:10:02 49° 106° (ESE) 1,046 3.9 -5.1°
Drops below altitude 10° 01:15:20 10° 33° (NNE) 2,409 5.6 -6.2°
Sets 01:17:48 0° 28° (NNE) 3,337 6.4 -6.7°
